Find Starlink 3923

NORAD ID: 52489 Int'l Des: 2022-049 Owner: SPXS Country: US Constellation: starlink operational
LEOCIRCULAR

实时位置

正在加载3D地球...

关于 Starlink 3923

正在加载描述...

即将过境

Passes for default location (London). Set your location on the main map for personalized predictions.

高度历史

Loading altitude history...

两行轨道根数

1 52489U 22049AQ 26106.77512949 .00000112 00000-0 25140-4 0 9994
2 52489 53.2172 248.1486 0001271 89.4160 270.6978 15.08840646218004
Epoch: Apr 16, 2026 • Age: 13 hours

当前状态

高度 542.5 km
速度 7.60 km/s
星下点 39.49°N, 64.16°E
发射日期 May 6, 2022
运行时间 3.9 years
类型 internet

技术详情

分类 Payload
质量 297.00 kg
干质量 220.00 kg
总质量 297.00 kg
长度 0.20 m
直径 2.80 m
跨度 9.00 m
形状 Box + pan
制造商 SPXS
平台类型 Starlink
阶段状态 In Orbit
所有者/国家 SPXS/US

Most Searched